Simultaneous Nadir Overpasses (SNOs) Predictions

Prediction of SNOs between GOES-16 and METOP-C Satellite Orbit:

Table of predicted SNOs for the next 14.0 days since TLE Epoch: 7/28/2019
Index Date Time (GOES-16) GOES-16 Lat,Lon METOP-C Lat,Lon Distance(km) Time Diff (sec)
1 07/29/2019 02:27:10 -0.00, -75.21 0.16, -74.44 87.61 80
2 07/30/2019 14:48:42 0.01, -75.23 0.85, -79.00 429.95 80
3 07/31/2019 14:25:22 0.00, -75.24 -0.26, -74.00 140.35 80
4 08/02/2019 02:47:03 -0.01, -75.26 -0.76, -78.60 381.30 80
5 08/03/2019 02:23:43 -0.00, -75.27 0.34, -73.60 189.37 80
6 08/04/2019 14:45:16 0.01, -75.30 0.66, -78.17 326.99 80
7 08/05/2019 14:21:57 0.00, -75.32 -0.51, -73.19 244.16 80
8 08/07/2019 02:43:36 -0.01, -75.35 -0.58, -77.77 276.22 80
9 08/08/2019 02:20:18 -0.00, -75.37 0.58, -72.79 295.30 80
10 08/09/2019 14:41:49 0.01, -75.42 0.47, -77.34 219.79 80
11 08/10/2019 14:18:31 0.01, -75.44 -0.70, -72.36 351.99 80




NCC Satellite Simultaneous Nadir Overpasses (SNOs) Prediction Service
